This demonstration page uses our WeatherBlox Daily Observations layout. Learn more.

Left ArrowRight Arrow

Hourly Observations for October 4, 2018

Temp ( °F °C ) Dew Point ( °F °C ) Humidity (%) Winds ( mph kmh ) Pressure ( in mb ) Visibility ( mi km ) Precip ( " mm )
12:54 am 00:54 Clear 48 8.9 37 2.8 66 66 N 20 31 30.11 1020 10 16.0934 0 0
1:54 am 01:54 Clear 46 7.8 36 2.2 68 68 N 15 24 30.16 1021 10 16.0934 0 0
2:54 am 02:54 Clear 45 7.2 35 1.7 68 68 N 18 30 30.19 1022 10 16.0934 0 0
3:54 am 03:54 Clear 43 6.1 32 0 65 65 NNE 15 24 30.2 1023 10 16.0934 0 0
4:54 am 04:54 Clear 41 5 32 0 70 70 N 12 19 30.25 1024 10 16.0934 0 0
5:54 am 05:54 Clear 40 4.4 31 -0.6 70 70 N 15 24 30.26 1025 10 16.0934 0 0
6:54 am 06:54 Clear 38 3.3 31 -0.6 76 76 N 14 22 30.28 1025 10 16.0934 0 0
7:54 am 07:54 Sunny 39 3.9 31 -0.6 73 73 N 15 24 30.28 1026 10 16.0934 0 0
8:54 am 08:54 Sunny 41 5 32 0 70 70 NNE 17 28 30.3 1026 10 16.0934 0 0
9:54 am 09:54 Sunny 45 7.2 32 0 61 61 NNE 20 31 30.31 1026 10 16.0934 0 0
10:54 am 10:54 Sunny 48 8.9 33 0.6 56 56 NE 12 19 30.3 1026 10 16.0934 0 0
11:54 am 11:54 Sunny 48 8.9 33 0.6 56 56 ENE 12 19 30.27 1025 10 16.0934 0 0
12:54 pm 12:54 Sunny 51 10.6 34 1.1 52 52 ENE 13 20 30.26 1025 10 16.0934 0 0
1:54 pm 13:54 Cloudy with Light Rain 47 8.3 38 3.3 71 71 NE 9 15 30.21 1023 6 9.65604 0.01 0.254
2:54 pm 14:54 Cloudy 50 10 39 3.9 66 66 NE 10 17 30.19 1022 10 16.0934 0.01 0.254
3:54 pm 15:54 Cloudy 53 11.7 37 2.8 55 55 ENE 14 22 30.12 1020 10 16.0934 0 0
4:54 pm 16:54 Cloudy 53 11.7 36 2.2 52 52 ENE 10 17 30.09 1019 10 16.0934 0 0.0254
5:54 pm 17:54 Cloudy 54 12.2 36 2.2 51 51 ESE 9 15 30.08 1019 10 16.0934 0 0
6:54 pm 18:54 Cloudy 54 12.2 36 2.2 51 51 E 13 20 30.07 1018 10 16.0934 0 0
7:54 pm 19:54 Cloudy 53 11.7 38 3.3 57 57 ESE 7 11 30.08 1019 10 16.0934 0 0
8:54 pm 20:54 Cloudy 52 11.1 41 5 66 66 SSE 13 20 30.06 1018 10 16.0934 0 0.0254
9:16 pm 21:16 Cloudy with Light Rain 51 10.6 42 5.6 71 71 SE 6 9 30.09 1019 10 16.0934 0 0.0254
9:54 pm 21:54 Cloudy with Light Rain 50 10 45 7.2 83 83 SW 7 11 30.08 1019 7 11.26538 0 0.0254
10:54 pm 22:54 Cloudy 49 9.4 46 7.8 90 90 WSW 5 7 30.07 1018 10 16.0934 0 0.0254
11:50 pm 23:50 Cloudy 48 9 46 8 94 94 SW 3 6 30.06 1018 10 16.0934 0 0.0254
11:54 pm 23:54 Cloudy 48 8.9 46 7.8 93 93 S 5 7 30.03 1017 10 16.0934 0 0.0254

Powered by AerisWeather